TimePDT,TemperatureF,Dew PointF,Humidity,Sea Level PressureIn,VisibilityMPH,Wind Direction,Wind SpeedMPH,Gust SpeedMPH,PrecipitationIn,Events,Conditions,WindDirDegrees,DateUTC
12:53 AM,64.0,55.9,75,30.04,10.0,Calm,Calm,-,N/A,,Clear,0,2012-10-14 07:53:00
1:53 AM,63.0,55.9,78,30.05,10.0,Calm,Calm,-,N/A,,Clear,0,2012-10-14 08:53:00
2:53 AM,62.1,55.0,78,30.04,10.0,Calm,Calm,-,N/A,,Clear,0,2012-10-14 09:53:00
3:53 AM,61.0,53.1,75,30.03,10.0,Calm,Calm,-,N/A,,Clear,0,2012-10-14 10:53:00
4:53 AM,60.1,54.0,80,30.03,10.0,Calm,Calm,-,N/A,,Clear,0,2012-10-14 11:53:00
5:53 AM,60.1,54.0,80,30.03,10.0,Calm,Calm,-,N/A,,Clear,0,2012-10-14 12:53:00
6:53 AM,59.0,53.1,81,30.04,10.0,Calm,Calm,-,N/A,,Clear,0,2012-10-14 13:53:00
7:53 AM,63.0,54.0,72,30.05,9.0,Calm,Calm,-,N/A,,Clear,0,2012-10-14 14:53:00
8:53 AM,70.0,54.0,57,30.05,9.0,Calm,Calm,-,N/A,,Clear,0,2012-10-14 15:53:00
9:53 AM,75.9,55.0,48,30.03,8.0,NW,3.5,-,N/A,,Clear,310,2012-10-14 16:53:00
10:53 AM,84.0,55.0,37,30.01,10.0,Variable,4.6,-,N/A,,Clear,0,2012-10-14 17:53:00
11:53 AM,90.0,53.1,28,29.99,10.0,West,4.6,-,N/A,,Clear,260,2012-10-14 18:53:00
12:53 PM,93.9,46.0,19,29.96,10.0,Variable,4.6,-,N/A,,Clear,0,2012-10-14 19:53:00
1:53 PM,96.1,44.1,17,29.93,10.0,Variable,4.6,-,N/A,,Clear,0,2012-10-14 20:53:00
2:53 PM,98.1,44.1,16,29.91,10.0,Variable,5.8,-,N/A,,Clear,0,2012-10-14 21:53:00
3:53 PM,91.9,53.1,27,29.91,10.0,WNW,10.4,-,N/A,,Clear,290,2012-10-14 22:53:00
4:53 PM,88.0,50.0,27,29.91,10.0,West,8.1,16.1,N/A,,Clear,280,2012-10-14 23:53:00
5:53 PM,84.9,48.0,28,29.91,10.0,NW,3.5,-,N/A,,Clear,310,2012-10-15 00:53:00
6:53 PM,81.0,50.0,34,29.92,10.0,Calm,Calm,-,N/A,,Clear,0,2012-10-15 01:53:00
7:53 PM,78.1,52.0,40,29.93,10.0,Calm,Calm,-,N/A,,Clear,0,2012-10-15 02:53:00
8:53 PM,75.9,53.1,45,29.93,10.0,Calm,Calm,-,N/A,,Clear,0,2012-10-15 03:53:00
9:53 PM,73.9,52.0,46,29.94,10.0,Calm,Calm,-,N/A,,Clear,0,2012-10-15 04:53:00
10:53 PM,71.1,53.1,53,29.94,10.0,Calm,Calm,-,N/A,,Clear,0,2012-10-15 05:53:00
11:53 PM,68.0,53.1,59,29.93,10.0,Calm,Calm,-,N/A,,Clear,0,2012-10-15 06:53:00